Location: Bannatyne
(13.0833°N, 59.5333°W)
Time: 00:08:06
(UTC+00:00)

Explorer 7 - Pass Details

Date: 27 January 2020
Orbit: 485 x 679 km, 50.3° (Epoch: 27 February)

Event Time Altitude Azimuth Distance (km) Brightness Sun altitude
Rises 08:39:10 0° 352° (N) 2,643 - -25.6°
Exits shadow 08:42:09 - 19° (NNE) 1,896 9.6 -24.9°
Reaches altitude 10° 08:42:47 10° 27° (NNE) 1,803 9.6 -24.7°
Maximum altitude 08:44:12 12° 47° (NE) 1,727 9.7 -24.4°
Drops below altitude 10° 08:45:38 10° 67° (ENE) 1,844 10.2 -24.0°
Sets 08:49:28 0° 101° (E) 2,800 11.9 -23.1°
